Theta_e
326 327 329 329 337 338 338 336 338 338 339 336 334 333 334 335 335 335 335 334 335 336 334 336 345 338 337 339 343 341 340 339 340 338 343 353 354 350 339 343 345 347 346 347
321 323 328 329 328 334 335 335 334 332 332 329 332 334 332 333 333 335 337 337 335 336 336 333 335 337 335 338 337 340 343 337 337 335 335 344 352 353 347 342 345 346 346 345
323 322 326 324 327 331 333 330 332 333 331 329 328 329 333 331 334 332 329 331 335 335 333 334 335 335 335 337 337 336 339 339 337 335 333 335 346 351 353 348 347 346 347 343
320 318 322 323 323 330 330 329 328 329 328 326 326 327 328 331 326 327 330 329 328 329 330 332 334 337 336 336 334 331 332 335 331 332 331 333 338 350 353 352 352 350 349 349
319 318 327 327 323 323 326 329 326 325 325 325 325 325 326 327 326 326 326 325 327 328 328 328 332 334 335 337 339 333 332 330 330 332 334 335 337 349 352 354 354 354 353 352
319 323 324 323 324 325 323 327 325 325 324 324 324 324 323 325 325 325 326 326 326 326 327 328 328 329 332 335 339 339 333 334 332 333 343 347 343 349 352 354 355 355 354 354
321 325 327 324 324 325 326 322 323 324 323 323 322 323 324 325 324 323 323 324 326 325 325 326 328 328 329 334 334 336 339 336 335 332 339 347 344 349 351 353 355 356 356 354
317 324 326 324 324 326 322 321 322 322 322 323 323 323 320 320 321 321 322 322 323 325 326 324 326 329 329 329 332 333 332 337 337 334 337 336 334 339 346 351 351 354 353 353
318 318 322 323 322 323 323 324 324 323 321 321 320 319 319 320 320 319 320 320 322 324 326 325 325 326 328 328 329 333 332 332 335 337 334 336 336 333 344 349 351 351 351 353
322 321 323 322 323 323 324 322 320 319 319 319 319 318 318 318 318 318 318 319 320 320 323 326 325 325 325 327 328 333 333 330 330 333 335 338 340 341 341 341 344 345 347 346
319 322 323 323 323 324 321 319 318 318 318 319 319 319 318 318 317 317 318 318 318 318 318 320 323 325 325 325 327 328 327 327 327 329 333 338 339 336 340 343 340 342 343 340
319 322 322 322 323 322 319 318 316 318 319 318 319 318 315 316 317 317 317 317 317 318 318 319 320 322 324 324 324 326 328 328 328 327 328 331 335 337 336 335 339 341 339 339
323 324 324 323 322 318 318 316 317 319 318 317 317 315 315 315 316 316 316 316 317 317 319 319 320 320 321 322 326 328 329 331 329 326 324 325 328 330 332 331 333 337 337 338
323 324 321 322 319 317 317 317 318 318 317 316 315 316 316 315 315 315 315 315 316 318 319 321 322 322 322 327 328 328 329 328 328 328 325 325 326 325 330 332 330 331 331 336
321 321 318 318 317 318 316 317 317 315 313 313 314 315 314 314 313 313 314 314 316 318 321 322 321 322 324 325 326 327 328 327 327 328 328 327 326 326 326 329 332 331 328 330
320 317 316 314 317 317 316 316 315 313 312 310 310 310 313 313 313 312 311 313 314 315 317 320 323 323 324 325 325 326 325 325 326 326 328 328 328 327 327 328 330 330 331 330
316 316 315 312 316 317 317 316 314 313 308 307 307 307 309 313 314 313 312 312 313 314 316 318 321 323 324 326 326 327 328 327 327 326 326 327 329 329 327 327 328 327 329 330
316 314 313 312 316 317 317 316 315 314 309 309 311 309 308 313 313 312 311 312 314 315 317 319 321 322 323 323 325 326 326 326 327 326 326 325 327 329 329 328 329 329 328 327
315 314 313 314 317 317 315 315 316 315 314 311 312 311 308 307 312 315 314 313 313 315 317 320 322 323 326 325 323 325 328 326 326 326 326 326 326 327 328 328 328 328 328 326
315 314 312 315 317 316 316 315 315 316 315 313 313 313 310 308 306 311 314 314 313 313 316 318 321 322 324 325 324 326 325 327 327 327 327 326 326 326 327 327 327 326 327 328
315 314 312 315 316 315 314 315 315 315 317 314 314 313 312 310 308 304 305 309 313 315 317 319 319 319 321 323 324 325 326 326 325 326 325 326 327 327 327 327 327 327 326 327
316 314 314 314 315 314 313 313 314 313 316 315 314 314 314 312 311 309 306 303 303 308 313 314 315 317 318 320 321 321 322 323 323 324 324 325 325 325 326 326 327 327 327 325
317 315 314 313 314 314 313 312 313 313 313 316 315 314 314 313 312 310 310 309 306 302 303 308 312 313 315 316 317 318 318 318 318 319 319 320 322 322 323 325 325 326 325 324
319 316 313 314 314 314 314 312 311 313 312 313 315 314 314 314 313 312 310 310 309 308 306 301 300 303 308 311 312 312 313 314 315 314 315 316 317 318 319 320 321 322 323 323
322 316 313 314 315 315 315 313 311 311 311 312 314 315 315 314 313 313 310 311 311 310 309 308 306 301 300 300 301 305 308 309 309 311 311 312 312 311 312 314 316 317 319 320
322 321 314 314 314 314 314 313 311 311 311 312 312 312 313 314 313 314 313 310 311 311 310 309 308 307 304 300 300 300 300 301 304 306 307 308 308 309 309 309 310 311 312 313
322 323 322 319 314 315 314 313 312 312 311 311 312 312 312 313 313 311 311 313 310 311 311 311 310 308 307 304 301 300 300 300 300 301 302 303 304 305 306 307 307 308 308 308
Wind_Speed
2 8 8 4 5 8 5 2 3 2 3 5 7 9 16 14 19 22 25 27 27 26 22 18 13 14 33 33 15 17 12 17 24 26 27 29 38 31 25 29 28 27 29 26
2 4 9 11 8 6 7 5 5 5 0 3 14 17 21 22 26 23 23 22 16 23 26 18 20 8 27 37 35 30 25 27 45 47 37 34 34 38 31 28 27 26 28 28
1 3 5 5 4 2 2 3 1 0 2 8 8 15 17 19 22 24 25 25 21 17 24 23 17 11 9 20 25 40 34 41 62 54 49 36 38 34 41 33 29 28 25 26
3 2 2 4 2 4 7 3 4 3 5 9 12 20 16 10 20 26 25 27 26 28 26 22 16 15 12 17 17 21 32 49 55 53 47 47 39 38 41 34 36 32 29 25
4 3 1 4 2 2 5 2 4 4 7 12 18 19 15 10 23 24 23 25 27 25 26 23 24 22 23 23 20 25 32 37 33 40 39 42 44 41 44 34 34 31 28 27
2 4 7 3 5 11 4 4 3 6 9 13 17 6 5 25 29 30 27 24 22 23 24 19 18 20 24 24 21 24 27 27 30 23 23 30 32 46 47 37 35 27 24 24
2 2 3 2 6 4 2 4 11 11 18 19 7 14 25 31 34 33 32 31 28 26 27 24 19 20 21 21 22 24 24 28 22 35 20 19 28 51 45 41 36 35 32 29
2 3 3 2 1 0 3 8 11 14 19 23 25 30 32 32 33 33 32 31 29 28 27 25 20 18 18 17 18 21 21 22 19 26 9 27 44 16 19 42 36 33 28 26
5 4 4 7 7 5 3 8 12 18 23 24 30 33 33 31 33 33 33 32 28 26 23 24 24 21 20 17 16 17 17 16 13 8 15 28 22 17 38 18 22 32 26 24
3 3 7 7 5 1 3 8 14 17 20 24 30 31 30 30 30 30 30 30 30 29 26 23 26 26 24 19 16 13 15 19 16 11 7 5 8 9 9 6 10 7 10 10
0 3 2 10 2 2 6 11 17 22 25 27 27 26 26 28 29 28 28 29 30 33 33 30 29 29 24 24 19 19 18 16 17 16 13 11 10 11 11 10 5 3 1 3
5 10 5 4 3 2 8 12 19 25 28 23 22 26 27 25 25 26 26 28 29 28 28 29 30 32 27 22 20 19 18 18 15 15 14 14 13 10 9 8 7 6 7 8
5 8 4 2 5 3 8 14 19 21 21 21 22 23 23 25 26 26 25 26 26 26 27 24 22 23 25 21 19 17 17 18 18 18 15 16 16 16 17 12 6 9 12 12
8 9 6 9 4 2 8 11 16 18 20 22 22 23 23 25 27 26 25 23 23 24 24 20 20 20 13 13 18 19 16 18 19 19 18 15 15 14 14 13 13 12 8 15
9 7 5 8 4 4 7 12 16 21 24 25 27 28 27 26 26 27 26 26 23 21 17 13 12 10 10 13 17 21 23 21 21 21 19 19 17 15 15 14 14 14 14 12
10 9 8 5 5 3 5 11 14 21 23 24 26 28 28 28 24 24 25 25 22 21 13 12 8 11 13 12 13 17 19 22 24 23 23 21 21 20 17 16 15 14 13 14
17 11 8 6 5 3 1 7 14 18 21 25 27 28 29 31 30 25 25 23 21 20 17 17 15 9 12 11 12 13 15 17 17 21 23 23 20 19 21 19 19 20 20 19
5 5 6 5 7 4 2 2 8 13 16 20 27 33 34 33 34 27 26 23 24 21 20 16 14 15 15 13 12 12 12 13 14 17 20 21 24 21 20 19 19 20 21 24
10 6 3 8 6 4 2 1 2 8 14 17 21 27 33 35 34 32 28 27 27 26 24 19 16 16 17 14 13 11 10 12 14 15 16 18 19 21 23 23 23 22 22 26
10 6 5 9 7 4 3 2 4 4 9 13 17 22 29 35 36 34 35 30 26 24 22 22 20 18 17 12 4 5 8 7 9 9 12 14 17 20 23 24 23 23 26 23
9 6 6 10 7 4 3 4 6 3 4 9 12 16 22 27 33 36 37 36 35 31 27 24 23 20 18 14 9 7 4 4 6 6 6 7 9 10 13 17 18 19 20 21
10 10 6 12 9 7 5 5 5 3 3 5 7 11 15 20 26 31 33 34 34 31 31 32 30 25 20 14 13 12 11 10 9 9 7 6 7 7 6 8 12 14 17 13
9 11 8 12 11 8 7 8 5 5 5 5 4 7 11 14 19 25 29 32 34 35 34 32 31 30 27 25 23 20 18 17 17 15 13 11 9 8 6 8 10 10 11 15
7 11 10 11 11 11 11 8 6 7 6 5 6 3 8 11 11 15 17 22 27 32 34 34 32 30 29 30 30 29 27 25 23 22 21 19 17 14 12 11 12 14 15 17
9 7 10 12 12 13 12 11 8 5 6 5 3 5 7 4 7 10 12 14 19 24 28 31 31 32 32 32 30 29 28 29 28 26 25 25 24 23 21 18 15 12 11 11
14 11 11 9 11 12 11 13 11 7 5 4 4 5 5 3 5 5 8 11 13 16 21 24 27 29 30 30 29 30 29 28 26 26 26 27 26 25 24 25 24 22 20 15
16 20 18 15 14 14 13 14 12 9 5 7 7 8 8 3 0 3 5 8 10 11 13 16 20 23 25 26 26 26 26 27 27 27 26 25 25 25 24 24 24 24 24 24
Wind_Direction
95 96 87 78 31 18 66 108 122 154 160 284 312 321 340 2 17 21 23 21 20 29 24 17 279 306 270 280 284 289 309 316 302 311 302 277 269 256 250 247 243 240 237 241
59 93 106 81 31 32 31 38 105 125 272 250 314 326 348 4 5 6 5 4 13 31 27 35 39 212 215 266 281 285 272 291 298 293 293 286 270 261 246 240 239 235 235 234
213 98 141 34 347 60 79 22 34 271 295 325 315 323 311 336 349 350 360 358 355 355 7 0 20 27 348 304 266 278 277 283 281 279 282 280 274 256 254 236 235 234 232 233
178 11 184 238 283 87 106 32 1 311 307 326 325 326 317 325 356 344 333 340 342 349 344 343 349 329 329 331 328 302 274 261 279 279 278 275 273 248 248 238 237 232 231 231
121 86 81 276 142 224 214 264 352 339 319 324 332 330 308 330 339 342 344 337 328 332 335 343 341 336 338 330 330 313 322 301 295 278 280 273 268 244 242 236 234 234 233 231
116 145 208 189 289 337 140 267 316 318 312 320 330 312 272 318 317 315 315 321 323 323 332 331 330 333 323 328 311 320 330 324 273 301 278 292 271 242 241 231 229 225 229 231
96 125 290 212 302 328 191 251 322 315 316 317 291 287 303 309 310 309 310 307 304 303 311 320 326 318 325 318 323 326 325 311 333 338 349 346 282 252 238 233 227 226 228 230
100 104 263 351 141 212 233 314 311 314 318 313 308 310 311 313 311 311 312 310 306 304 302 303 305 309 315 318 316 321 328 336 336 324 241 341 270 236 279 237 224 222 223 222
164 204 144 112 128 159 302 298 312 312 313 313 311 310 312 309 309 310 309 309 309 310 307 293 290 285 295 292 318 307 325 330 350 341 212 278 310 325 290 202 220 225 215 220
104 243 162 140 138 7 307 313 317 314 312 313 315 318 319 315 316 316 312 308 310 306 302 298 287 285 277 285 291 300 315 323 339 329 311 314 299 290 321 126 256 258 238 215
89 140 143 183 188 335 321 329 325 326 326 321 318 315 315 308 313 316 314 313 308 305 303 297 291 286 284 279 285 284 290 304 317 333 318 315 315 331 353 3 323 286 270 174
214 171 181 185 235 257 333 339 344 338 332 327 319 317 325 319 316 314 313 312 313 310 307 303 293 288 286 280 283 280 281 285 302 314 325 319 303 299 326 343 305 322 307 273
167 174 174 224 163 353 352 353 345 342 347 340 336 334 331 324 321 317 316 315 316 314 308 300 297 291 284 280 277 275 277 271 279 291 307 308 316 316 302 314 330 284 284 285
168 166 152 162 170 12 16 3 354 3 7 1 353 349 342 334 331 330 329 327 323 315 313 314 316 313 296 276 268 264 265 267 276 274 280 291 294 294 300 299 276 261 274 253
183 195 186 161 150 77 30 7 15 16 9 10 12 9 359 342 337 336 334 332 329 338 334 328 317 300 292 274 271 271 271 270 266 272 269 270 273 277 271 276 274 262 254 264
184 173 161 155 134 94 35 20 20 15 9 8 7 9 8 6 353 348 344 343 344 346 345 352 327 298 305 314 303 289 279 277 271 270 267 271 271 272 275 266 267 263 263 259
168 174 182 181 170 150 41 27 27 26 25 24 22 15 8 10 7 2 356 353 350 352 348 346 347 330 321 320 294 295 288 280 279 274 277 271 271 275 273 272 272 270 272 270
212 210 205 205 178 198 173 22 34 32 29 26 23 21 18 15 13 12 5 9 6 4 4 354 345 338 324 310 290 278 279 279 277 283 279 272 264 269 272 268 272 275 277 271
199 209 217 184 181 176 137 286 348 16 24 18 18 21 20 19 16 20 19 20 15 12 9 7 360 346 341 321 291 279 294 288 269 270 273 271 266 257 259 262 270 280 283 278
191 200 203 188 192 196 210 295 316 333 11 25 21 21 23 23 21 21 26 29 22 16 16 18 16 12 8 9 1 316 311 304 299 289 281 272 269 264 261 264 269 273 273 282
210 206 210 192 204 217 243 267 293 328 336 11 16 16 24 25 23 25 25 25 25 25 26 28 22 14 15 11 353 335 329 334 318 317 321 317 301 293 285 270 269 276 276 269
223 220 227 205 215 228 256 270 287 294 313 338 358 3 12 23 28 29 30 29 26 23 26 29 27 23 18 12 14 17 26 17 5 353 336 307 290 276 280 270 254 260 244 253
236 229 243 218 216 239 252 266 263 283 290 284 337 346 355 11 22 25 31 32 30 30 30 31 30 31 34 37 38 36 32 26 20 15 4 353 341 325 304 274 278 278 273 262
249 240 225 205 218 242 257 259 266 267 308 305 270 335 347 357 11 22 28 33 32 32 32 32 32 31 33 38 40 41 39 36 32 31 27 22 16 9 0 345 319 306 294 284
248 247 216 220 239 252 268 240 251 270 284 306 316 293 291 316 347 2 9 21 29 31 33 35 34 33 34 36 36 36 37 37 38 40 39 38 37 36 35 31 24 12 353 332
236 241 241 247 259 255 268 233 240 252 275 267 305 331 320 322 309 336 352 1 15 21 25 28 32 33 34 36 37 37 38 38 38 38 40 42 42 42 45 44 42 41 39 34
250 244 239 244 249 272 258 232 237 240 259 255 272 293 327 283 302 17 348 334 349 359 8 15 21 26 29 32 35 35 36 37 38 38 39 39 38 38 39 42 48 48 46 45